[[{"header":{"parameterUnit":"m.s-1","parameterCategory":1,"la1":30.2991,"la2":30.254,"lo1":-89.0895,"lo2":-89.0444,"dy":0.0017,"dx":0.0017,"nx":28,"ny":28,"refTime":"2023-10-23T21:00:00:Z","depth":0,"parameterNumber":2,"parameterNumberName":"U-component_of_WINDS"},"data":[0,0,0,0,0,0,0,0,0,0,0,0,0,0,0,0,0,0,0,0,0,0,0,0,0,0,0,0,0,0,0,0,0,0,0,0,0,0,0,0,0,0,0,0,0,0,0,0,0,0,0,0,0,0,0,0,0,0,-2.1246,-2.1247,0,-2.1276,-2.1276,-2.1276,-2.1204,-2.1202,-2.12,-2.1197,-2.123,-2.1232,-2.1235,0,0,0,0,0,0,0,0,0,0,0,0,0,-2.1129,-2.1132,-2.1246,-2.1247,-2.1247,-2.1276,-2.1276,-2.1277,-2.1205,-2.1202,-2.1199,-2.1196,-2.1229,-2.1232,-2.1236,0,0,0,0,0,0,0,0,0,0,0,0,0,-2.1172,-2.1132,-2.1246,-2.1214,-2.1212,-2.1276,-2.1276,-2.1277,-2.1205,-2.1202,-2.1198,-2.1195,-2.1227,-2.1232,-2.1236,-2.1333,0,0,-2.125,-2.1252,0,0,0,0,0,0,0,0,-2.1169,-2.1176,-2.1219,-2.1217,-2.1214,-2.1233,-2.1247,-2.1296,-2.1206,-2.1208,-2.1197,-2.1193,-2.1234,-2.1237,-2.125,-2.1334,-2.1336,-2.125,-2.1253,-2.1255,-2.1256,0,0,0,0,0,0,0,-2.1166,-2.1174,-2.1258,-2.1219,-2.1217,-2.1199,-2.1202,-2.1256,-2.124,-2.1207,-2.1202,-2.1207,-2.1232,-2.1246,-2.1251,-2.1336,-2.125,-2.1254,-2.1257,-2.1259,-2.1502,-2.1505,0,0,0,0,0,0,-2.1167,-2.1172,-2.1257,-2.1259,-2.1183,-2.1204,-2.1207,-2.123,-2.1239,-2.1237,-2.1209,-2.1203,-2.124,-2.1246,-2.1252,-2.1366,-2.1255,-2.1259,-2.1262,-2.1498,-2.1502,-2.1507,0,0,0,0,0,0,-2.1165,-2.1176,-2.1256,-2.1214,-2.1223,-2.121,-2.1237,-2.1233,-2.1247,-2.124,-2.1237,-2.1227,-2.1238,-2.1245,-2.1313,-2.1366,-2.1261,-2.1265,-2.1493,-2.1499,-2.1505,-2.1596,0,0,0,0,0,0,-2.1162,-2.1175,-2.1211,-2.1216,-2.1226,-2.1317,-2.124,-2.1236,-2.1255,-2.1247,-2.1256,-2.1255,-2.1236,-2.1307,-2.1318,-2.1371,-2.1269,-2.1489,-2.1496,-2.1503,-2.1588,-2.1604,-2.1617,0,0,0,0,0,-2.1158,-2.1236,-2.1213,-2.1224,-2.127,-2.132,-2.1326,-2.1302,-2.1259,-2.1296,-2.1292,-2.1254,-2.1358,-2.1314,-2.1326,-2.1381,-2.1485,-2.1494,-2.1502,-2.1581,-2.1601,-2.1617,0,0,0,0,0,0,-2.1239,-2.1236,-2.1211,-2.1292,-2.1307,-2.1308,-2.1353,-2.1323,-2.135,-2.1342,-2.1311,-2.1314,-2.1388,-2.1391,-2.1342,-2.1475,-2.1415,-2.1426,-2.1471,-2.1489,-2.1504,-2.1502,-2.1272,0,0,0,0,0,-2.1266,-2.1306,-2.1301,-2.1373,-2.1382,-2.1366,-2.1387,-2.1367,-2.1381,-2.1387,-2.1388,-2.1404,-2.144,-2.1464,-2.1497,-2.1587,-2.1589,-2.1631,-2.1646,-2.1658,-2.1668,-2.1718,-2.1737,-2.1534,-2.1534,-2.1534,0,0,-2.1322,-2.1326,-2.1353,-2.139,-2.1399,-2.1442,-2.1372,-2.142,-2.1452,-2.1395,-2.1459,-2.146,-2.1476,-2.1556,-2.1591,-2.1561,-2.1725,-2.1669,-2.1678,-2.1682,-2.1728,-2.1748,-2.1765,-2.154,-2.1539,-2.1538,0,0,-2.1448,-2.1454,-2.1515,-2.1526,-2.154,-2.1529,-2.1544,-2.1549,-2.1548,-2.1612,-2.157,-2.1608,-2.1671,-2.1684,-2.1699,-2.183,-2.1797,-2.1841,-2.1919,-2.1967,-2.1983,-2.1997,-2.2045,-2.2063,-2.1851,-2.1852,-2.1852,0,-2.1517,-2.1579,-2.1551,-2.1602,-2.162,-2.157,-2.1632,-2.1644,-2.1669,-2.1683,-2.1648,-2.1726,-2.1733,-2.1816,-2.1848,-2.1861,-2.1878,-2.1841,-2.1983,-2.1997,-2.2009,-2.2055,-2.2073,-2.1857,-2.1856,-2.1856,-2.1855,0,-2.1664,-2.1708,-2.1756,-2.1781,-2.1804,-2.1861,-2.1842,-2.1869,-2.1847,-2.184,-2.1907,-2.1913,-2.1947,-2.1965,-2.1944,-2.2046,-2.2026,-2.1988,-2.1927,-2.2035,-2.2077,-2.2094,-2.1865,-2.1863,-2.1861,-2.186,0,0,-2.1841,-2.185,-2.1868,-2.188,-2.1892,-2.1926,-2.198,-2.2013,-2.2038,-2.2056,-2.2102,-2.2157,-2.2121,-2.2138,-2.2119,-2.2161,-2.2267,-2.2117,-2.2117,-2.2146,-2.238,-2.241,-2.2431,-2.2244,-2.2247,-2.225,-2.238,0,-2.1967,-2.206,-2.2037,-2.213,-2.2171,-2.2124,-2.2172,-2.2185,-2.2181,-2.2215,-2.221,-2.2249,-2.2199,-2.2209,-2.2249,-2.2245,-2.2313,-2.2235,-2.2288,-2.229,-2.2287,-2.2453,-2.2485,-2.2607,-2.2396,-2.2399,-2.2401,0,-2.2125,-2.215,-2.2248,-2.2254,-2.2271,-2.2314,-2.2343,-2.2376,-2.239,-2.2384,-2.2403,-2.2375,-2.243,-2.2368,-2.2444,-2.2392,-2.2412,-2.2413,-2.2417,-2.2423,-2.2353,-2.2464,-2.2645,-2.2664,-2.2426,-2.2424,-2.2422,0,-2.2247,-2.2305,-2.2371,-2.2382,-2.2391,-2.2423,-2.2428,-2.2438,-2.246,-2.2485,-2.2499,-2.253,-2.2548,-2.2573,-2.2555,-2.2511,-2.2635,-2.257,-2.2633,-2.2633,-2.2662,-2.2661,-2.285,-2.2673,-2.2672,-2.2672,-2.2672,0,-2.239,-2.2452,-2.2426,-2.2467,-2.2536,-2.2508,-2.2577,-2.2576,-2.2587,-2.2627,-2.2588,-2.2627,-2.26,-2.2637,-2.2623,-2.2689,-2.2697,-2.2695,-2.269,-2.2699,-2.27,-2.2713,-2.2705,-2.2677,-2.2676,-2.2675,-2.2674,0,-2.2539,-2.2523,-2.2593,-2.2595,-2.2597,-2.2648,-2.265,-2.2689,-2.2681,-2.2733,-2.2744,-2.2732,-2.2774,-2.2757,-2.2802,-2.2792,-2.2878,-2.2862,-2.2873,-2.287,-2.2933,-2.2928,-2.3139,-2.3166,-2.297,-2.2972,-2.2973,0,-2.2632,-2.2678,-2.2686,-2.271,-2.2718,-2.2758,-2.278,-2.2754,-2.2779,-2.2799,-2.2835,-2.2874,-2.2903,-2.2972,-2.2968,-2.3002,-2.2988,-2.3059,-2.2993,-2.3,-2.2991,-2.2989,-2.2994,-2.3073,-2.3076,-2.3077,-2.3079,0,-2.2799,-2.2789,-2.2822,-2.2853,-2.288,-2.2902,-2.2922,-2.2944,-2.292,-2.2949,-2.2992,-2.3014,-2.306,-2.3099,-2.313,-2.3135,-2.3104,-2.31,-2.3116,-2.3126,-2.3132,-2.3131,-2.2911,-2.3095,-2.3094,-2.3092,-2.3092,-2.3091,-2.2924,-2.2963,-2.2975,-2.3013,-2.3025,-2.3045,-2.3081,-2.3078,-2.3112,-2.3147,-2.313,-2.318,-2.3193,-2.3231,-2.3242,-2.3281,-2.3253,-2.3276,-2.3283,-2.3289,-2.3298,-2.3124,-2.3286,-2.3285,-2.3285,-2.3284,-2.3284,0,-2.3091,-2.3096,-2.3131,-2.3159,-2.319,-2.3156,-2.3176,-2.3204,-2.3248,-2.3263,-2.3293,-2.3342,-2.338,-2.3379,-2.3414,-2.3446,-2.3432,-2.3456,-2.3454,-2.3456,-2.332,-2.3303,-2.3466,-2.3466,-2.3466,-2.3466,-2.3466,-2.3466,-2.3181,-2.3247,-2.3239,-2.3311,-2.3315,-2.3363,-2.3378,-2.3396,-2.3408,-2.3465,-2.3496,-2.3494,-2.3504,-2.3539,-2.3573,-2.3572,-2.3587,-2.3617,-2.3611,-2.3484,-2.3466,-2.3449,-2.3432,-2.362,-2.362,-2.3743,-2.3745,-2.3745]},{"header":{"parameterUnit":"m.s-1","parameterCategory":1,"la1":30.2991,"la2":30.254,"lo1":-89.0895,"lo2":-89.0444,"dy":0.0017,"dx":0.0017,"nx":28,"ny":28,"refTime":"2023-10-23T21:00:00:Z","depth":0,"parameterNumber":3,"parameterNumberName":"V-component_of_WINDS"},"data":[0,0,0,0,0,0,0,0,0,0,0,0,0,0,0,0,0,0,0,0,0,0,0,0,0,0,0,0,0,0,0,0,0,0,0,0,0,0,0,0,0,0,0,0,0,0,0,0,0,0,0,0,0,0,0,0,0,0,-1.1866,-1.1866,0,-1.185,-1.1849,-1.1849,-1.1817,-1.1816,-1.1816,-1.1815,-1.1798,-1.1799,-1.1799,0,0,0,0,0,0,0,0,0,0,0,0,0,-1.1868,-1.1868,-1.1866,-1.1866,-1.1865,-1.185,-1.1849,-1.1849,-1.1817,-1.1816,-1.1815,-1.1815,-1.1798,-1.1799,-1.1799,0,0,0,0,0,0,0,0,0,0,0,0,0,-1.1861,-1.1868,-1.1866,-1.1847,-1.1846,-1.185,-1.1849,-1.1849,-1.1817,-1.1816,-1.1815,-1.1814,-1.1798,-1.1799,-1.1799,-1.1819,0,0,-1.1799,-1.18,0,0,0,0,0,0,0,0,-1.1861,-1.1861,-1.185,-1.1849,-1.1847,-1.1834,-1.1844,-1.1839,-1.1817,-1.1828,-1.1815,-1.1814,-1.1811,-1.181,-1.1809,-1.1819,-1.1818,-1.1799,-1.18,-1.18,-1.18,0,0,0,0,0,0,0,-1.1862,-1.1861,-1.1859,-1.185,-1.1848,-1.1839,-1.1837,-1.1843,-1.1825,-1.1827,-1.1825,-1.1823,-1.181,-1.1809,-1.1809,-1.1818,-1.1799,-1.18,-1.18,-1.18,-1.1842,-1.1843,0,0,0,0,0,0,-1.1865,-1.1862,-1.186,-1.1859,-1.1852,-1.184,-1.1838,-1.1839,-1.1825,-1.1822,-1.1824,-1.1822,-1.1809,-1.1808,-1.1808,-1.1831,-1.18,-1.18,-1.18,-1.1841,-1.1842,-1.1843,0,0,0,0,0,0,-1.1865,-1.1865,-1.186,-1.186,-1.1858,-1.1841,-1.1843,-1.1839,-1.1839,-1.1823,-1.1819,-1.1827,-1.1808,-1.1808,-1.1817,-1.183,-1.18,-1.18,-1.184,-1.1841,-1.1843,-1.1877,0,0,0,0,0,0,-1.1865,-1.1865,-1.1873,-1.186,-1.1859,-1.187,-1.1844,-1.184,-1.1839,-1.1836,-1.1824,-1.1821,-1.1808,-1.1816,-1.1817,-1.183,-1.18,-1.1839,-1.1841,-1.1842,-1.1875,-1.188,-1.1884,0,0,0,0,0,-1.1865,-1.1884,-1.1874,-1.1874,-1.1868,-1.1871,-1.187,-1.1854,-1.184,-1.1848,-1.1838,-1.1822,-1.1828,-1.1818,-1.1818,-1.1831,-1.1838,-1.184,-1.1842,-1.1873,-1.1879,-1.1884,0,0,0,0,0,0,-1.19,-1.1882,-1.1871,-1.1886,-1.188,-1.1865,-1.1875,-1.1861,-1.1859,-1.1856,-1.1836,-1.1833,-1.1845,-1.1839,-1.1827,-1.185,-1.183,-1.1833,-1.1854,-1.1859,-1.1863,-1.1865,-1.1801,0,0,0,0,0,-1.1909,-1.1913,-1.1897,-1.1911,-1.1909,-1.1892,-1.1893,-1.1881,-1.1874,-1.1872,-1.1862,-1.1856,-1.1856,-1.1857,-1.1857,-1.1873,-1.187,-1.1882,-1.1887,-1.189,-1.1893,-1.1901,-1.1906,-1.185,-1.185,-1.185,0,0,-1.1928,-1.1919,-1.1923,-1.1918,-1.1912,-1.1916,-1.1891,-1.1896,-1.1899,-1.1872,-1.188,-1.1873,-1.1864,-1.1877,-1.1882,-1.1872,-1.1907,-1.1893,-1.1896,-1.1897,-1.1903,-1.1909,-1.1913,-1.1852,-1.1852,-1.1851,0,0,-1.1966,-1.1959,-1.197,-1.1965,-1.1956,-1.1944,-1.1947,-1.1934,-1.1928,-1.1935,-1.1916,-1.1918,-1.1919,-1.1914,-1.1912,-1.1945,-1.193,-1.1945,-1.1969,-1.1977,-1.1981,-1.1985,-1.1997,-1.2002,-1.1948,-1.1948,-1.1948,0,-1.1991,-1.1996,-1.1978,-1.1984,-1.1982,-1.1958,-1.1969,-1.1964,-1.1956,-1.1955,-1.1944,-1.1944,-1.1937,-1.1948,-1.1956,-1.1955,-1.1957,-1.1947,-1.1982,-1.1986,-1.1989,-1.2,-1.2005,-1.195,-1.195,-1.1949,-1.1949,0,-1.2028,-1.2031,-1.2041,-1.2034,-1.2033,-1.2041,-1.2024,-1.2025,-1.2012,-1.2002,-1.2009,-1.1999,-1.1996,-1.1998,-1.1986,-1.2006,-1.2,-1.1986,-1.1966,-1.1997,-1.2007,-1.2011,-1.1953,-1.1952,-1.1951,-1.1951,0,0,-1.2088,-1.2068,-1.2073,-1.2068,-1.2056,-1.2058,-1.2065,-1.2062,-1.2063,-1.2058,-1.2063,-1.2064,-1.205,-1.2047,-1.2034,-1.2041,-1.2067,-1.2025,-1.2025,-1.2034,-1.2089,-1.2101,-1.2106,-1.2057,-1.2058,-1.2058,-1.209,0,-1.2123,-1.2134,-1.2117,-1.2132,-1.2135,-1.2111,-1.2116,-1.2109,-1.2099,-1.21,-1.2088,-1.209,-1.2071,-1.2069,-1.2075,-1.2063,-1.2078,-1.206,-1.2061,-1.2062,-1.2065,-1.2111,-1.2124,-1.2154,-1.2094,-1.2094,-1.2095,0,-1.2166,-1.2162,-1.2177,-1.2163,-1.2163,-1.2169,-1.2164,-1.2165,-1.2156,-1.2148,-1.2144,-1.2128,-1.2133,-1.2113,-1.212,-1.2108,-1.2107,-1.2101,-1.2102,-1.2102,-1.2081,-1.2113,-1.2164,-1.2169,-1.2101,-1.21,-1.21,0,-1.2209,-1.2207,-1.2216,-1.2213,-1.2196,-1.2201,-1.2194,-1.2184,-1.2182,-1.2178,-1.2177,-1.2173,-1.2171,-1.2167,-1.2151,-1.2138,-1.2159,-1.2138,-1.2152,-1.2153,-1.2159,-1.2159,-1.2211,-1.2157,-1.2157,-1.2157,-1.2157,0,-1.225,-1.226,-1.2235,-1.224,-1.2251,-1.223,-1.2241,-1.2231,-1.2222,-1.2225,-1.2204,-1.2207,-1.2184,-1.2184,-1.2171,-1.2178,-1.2177,-1.2171,-1.2167,-1.2173,-1.2174,-1.2173,-1.2171,-1.2158,-1.2158,-1.2158,-1.2158,0,-1.23,-1.2283,-1.2291,-1.2274,-1.227,-1.2279,-1.2264,-1.2268,-1.2256,-1.226,-1.2259,-1.224,-1.2239,-1.2222,-1.2217,-1.2208,-1.2221,-1.2213,-1.2224,-1.2222,-1.2238,-1.2237,-1.2291,-1.2297,-1.224,-1.224,-1.2241,0,-1.2328,-1.2335,-1.2319,-1.2319,-1.2314,-1.2314,-1.2313,-1.2292,-1.2291,-1.228,-1.2285,-1.2283,-1.2279,-1.2279,-1.2265,-1.2261,-1.2253,-1.2272,-1.2252,-1.2258,-1.2253,-1.2254,-1.2254,-1.2277,-1.2278,-1.2278,-1.2279,0,-1.238,-1.2371,-1.2369,-1.2364,-1.2363,-1.2358,-1.2352,-1.2353,-1.233,-1.233,-1.2329,-1.2326,-1.2321,-1.2318,-1.2312,-1.2304,-1.2288,-1.2285,-1.2288,-1.2295,-1.2301,-1.2298,-1.2236,-1.2284,-1.2283,-1.2283,-1.2283,-1.2283,-1.242,-1.2425,-1.2414,-1.2413,-1.2405,-1.24,-1.2403,-1.239,-1.2389,-1.2383,-1.237,-1.2371,-1.236,-1.2349,-1.2343,-1.2343,-1.2333,-1.2337,-1.2339,-1.234,-1.2344,-1.23,-1.2341,-1.2341,-1.2341,-1.2341,-1.2341,0,-1.2471,-1.2462,-1.2461,-1.2452,-1.2451,-1.2435,-1.2427,-1.2427,-1.2427,-1.2419,-1.2415,-1.2413,-1.241,-1.2395,-1.239,-1.2393,-1.2385,-1.2392,-1.2392,-1.2391,-1.2353,-1.2351,-1.2399,-1.2399,-1.2399,-1.2399,-1.2399,-1.2399,-1.2497,-1.2504,-1.2494,-1.2497,-1.2488,-1.2488,-1.2485,-1.2479,-1.2472,-1.2471,-1.2468,-1.2458,-1.2446,-1.244,-1.2436,-1.2432,-1.2431,-1.2441,-1.2434,-1.2399,-1.2394,-1.2388,-1.2386,-1.2441,-1.2441,-1.2472,-1.2473,-1.2473]}]]